TimeMDT,TemperatureF,Dew PointF,Humidity,Sea Level PressureIn,VisibilityMPH,Wind Direction,Wind SpeedMPH,Gust SpeedMPH,PrecipitationIn,Events,Conditions,WindDirDegrees,DateUTC
12:53 AM,37.9,23.0,55,30.45,10.0,NNE,8.1,-,N/A,,Clear,30,2013-05-11 06:53:00
1:53 AM,32.0,21.9,66,30.47,10.0,South,5.8,-,N/A,,Clear,190,2013-05-11 07:53:00
2:53 AM,32.0,21.9,66,30.48,10.0,North,3.5,-,N/A,,Clear,10,2013-05-11 08:53:00
3:53 AM,30.0,21.0,69,30.49,10.0,NNE,6.9,-,N/A,,Clear,30,2013-05-11 09:53:00
4:53 AM,26.1,19.0,75,30.50,10.0,ENE,4.6,-,N/A,,Clear,60,2013-05-11 10:53:00
5:53 AM,28.0,19.9,72,30.51,10.0,Calm,Calm,-,N/A,,Clear,0,2013-05-11 11:53:00
6:53 AM,33.1,23.0,66,30.50,10.0,ENE,5.8,-,N/A,,Clear,70,2013-05-11 12:53:00
7:53 AM,37.9,25.0,60,30.48,10.0,East,8.1,-,N/A,,Clear,90,2013-05-11 13:53:00
8:53 AM,45.0,26.1,48,30.47,10.0,ESE,6.9,-,N/A,,Clear,120,2013-05-11 14:53:00
9:53 AM,50.0,24.1,36,30.44,10.0,SE,10.4,-,N/A,,Clear,130,2013-05-11 15:53:00
10:53 AM,52.0,21.9,31,30.41,10.0,Variable,4.6,-,N/A,,Clear,0,2013-05-11 16:53:00
11:53 AM,55.0,21.9,28,30.38,10.0,ENE,5.8,-,N/A,,Clear,70,2013-05-11 17:53:00
12:53 PM,57.9,21.9,25,30.34,10.0,Variable,3.5,-,N/A,,Clear,0,2013-05-11 18:53:00
1:53 PM,60.1,21.9,23,30.31,10.0,Variable,3.5,-,N/A,,Clear,0,2013-05-11 19:53:00
2:53 PM,63.0,23.0,22,30.27,10.0,SE,4.6,-,N/A,,Clear,130,2013-05-11 20:53:00
3:34 PM,64.4,21.2,19,30.22,10.0,Variable,3.5,-,N/A,,Partly Cloudy,0,2013-05-11 21:34:00
3:53 PM,64.0,21.9,20,30.25,10.0,Variable,4.6,-,N/A,,Partly Cloudy,0,2013-05-11 21:53:00
4:53 PM,66.0,23.0,20,30.22,10.0,ESE,8.1,-,N/A,,Clear,120,2013-05-11 22:53:00
5:53 PM,64.9,21.9,19,30.20,10.0,East,6.9,-,N/A,,Clear,80,2013-05-11 23:53:00
6:53 PM,64.0,23.0,21,30.17,10.0,East,13.8,-,N/A,,Clear,90,2013-05-12 00:53:00
7:53 PM,60.8,21.2,22,30.13,10.0,East,11.5,-,N/A,,Clear,90,2013-05-12 01:53:00
8:53 PM,55.0,21.0,27,30.17,10.0,East,10.4,-,N/A,,Clear,80,2013-05-12 02:53:00
9:53 PM,48.9,23.0,36,30.17,10.0,ENE,8.1,-,N/A,,Clear,60,2013-05-12 03:53:00
10:53 PM,44.1,23.0,43,30.18,10.0,East,8.1,-,N/A,,Clear,80,2013-05-12 04:53:00
11:53 PM,41.0,21.0,45,30.17,10.0,ENE,10.4,-,N/A,,Clear,60,2013-05-12 05:53:00